Darstellungsparameter: Aktuell verwendete Einstellungen:
Skalierung der Graphiken ... ?
xyx+y,   Skalierungsfaktor:      Skalierung: Modus: x, Faktor: 1
Darstellungszeitraum ... ?
Vom - - bis: - -   Zeitraum: 28.01.2019 - 28.01.2019
Min/Max/Avg-Anzeige ... ?
Zeige MMA aktuell
Zeige MMA Monat
Zeige MMA alles
Zeige --A aktuell
Zeige --A Monat
Zeige --A alles
Keine MMA-Anzeige
MMA:
Keine MMA-Graphiken
MMA-Basis: 28.01.2019 - 28.01.2019
Quicknavigation für Darstellung... ?
Tage:      1T, 2T, 3T, 5T -1T -2T -3T -5T +1T +2T +3T +5T
Wochen: 1W, 2W, 3W -1W -2W -3W +1W +2W +3W
Monate: 1M, 3M, 6M -1M -3M -6M +1M +3M +6M
Jahre:    1J, 3J, 5J, 10J -1J -3J -5J -10J +1J +3J +5J +10J
Nutze für die Darstellung ... ?
Originaldaten oder Mittelwerte auf ...
Stundenbasis Tagesbasis Wochenbasis
Monatsbasis Jahresbasis      Datenbasis: Original-Daten
Darstellen als:
Statistik (Auto) Statistik J:M      Darstellung:
Zur Graphik,    zurück zur Übersicht aller Sensoren.
 
Tabellarische Datenbersicht: ?
 
Sensor: Nr:Datum:Temp:Feuchte:Taupunkt:
Aussen-T/F 1 28-01-2019 00:00:00 2.8 C 90 % 1.33 C
2 28-01-2019 00:05:00 2.8 C 90 % 1.33 C
3 28-01-2019 00:10:00 2.8 C 90 % 1.33 C
4 28-01-2019 00:15:00 2.8 C 90 % 1.33 C
5 28-01-2019 00:20:00 2.9 C 90 % 1.43 C
6 28-01-2019 00:25:00 3.1 C 90 % 1.62 C
7 28-01-2019 00:30:00 3.2 C 90 % 1.72 C
8 28-01-2019 00:35:00 3.2 C 90 % 1.72 C
9 28-01-2019 00:40:00 3.2 C 90 % 1.72 C
10 28-01-2019 00:45:00 3.3 C 89 % 1.67 C
11 28-01-2019 00:50:00 3.3 C 89 % 1.67 C
12 28-01-2019 00:55:00 3.4 C 89 % 1.76 C
13 28-01-2019 01:00:00 3.4 C 89 % 1.76 C
14 28-01-2019 01:05:00 3.6 C 88 % 1.8 C
15 28-01-2019 01:10:00 3.6 C 88 % 1.8 C
16 28-01-2019 01:15:00 3.6 C 88 % 1.8 C
17 28-01-2019 01:20:00 3.5 C 88 % 1.7 C
18 28-01-2019 01:25:00 3.4 C 88 % 1.61 C
19 28-01-2019 01:30:00 3.3 C 88 % 1.51 C
20 28-01-2019 01:35:00 3.3 C 88 % 1.51 C
21 28-01-2019 01:40:00 3.3 C 89 % 1.67 C
22 28-01-2019 01:45:00 3.3 C 89 % 1.67 C
23 28-01-2019 01:50:00 3.3 C 89 % 1.67 C
24 28-01-2019 01:55:00 3.3 C 89 % 1.67 C
25 28-01-2019 02:00:00 3.3 C 89 % 1.67 C
Sensor: Nr:Datum:Temp:Feuchte:Taupunkt:
Aussen-T/F 26 28-01-2019 02:05:00 3.4 C 89 % 1.76 C
27 28-01-2019 02:10:00 3.4 C 89 % 1.76 C
28 28-01-2019 02:15:00 3.3 C 89 % 1.67 C
29 28-01-2019 02:20:00 3.3 C 89 % 1.67 C
30 28-01-2019 02:25:00 3.2 C 89 % 1.57 C
31 28-01-2019 02:30:00 3.2 C 89 % 1.57 C
32 28-01-2019 02:35:00 3.1 C 90 % 1.62 C
33 28-01-2019 02:40:00 3.1 C 90 % 1.62 C
34 28-01-2019 02:45:00 3.1 C 90 % 1.62 C
35 28-01-2019 02:50:00 3.1 C 90 % 1.62 C
36 28-01-2019 02:55:00 3.1 C 89 % 1.47 C
37 28-01-2019 03:00:00 3.1 C 89 % 1.47 C
38 28-01-2019 03:05:00 3.2 C 89 % 1.57 C
39 28-01-2019 03:10:00 3.2 C 89 % 1.57 C
40 28-01-2019 03:15:00 3.3 C 89 % 1.67 C
41 28-01-2019 03:20:00 3.3 C 89 % 1.67 C
42 28-01-2019 03:25:00 3.3 C 90 % 1.82 C
43 28-01-2019 03:30:00 3.3 C 90 % 1.82 C
44 28-01-2019 03:35:00 3.3 C 90 % 1.82 C
45 28-01-2019 03:40:00 3.3 C 90 % 1.82 C
46 28-01-2019 03:45:00 3.2 C 91 % 1.88 C
47 28-01-2019 03:50:00 3.2 C 91 % 1.88 C
48 28-01-2019 03:55:00 3.2 C 91 % 1.88 C
49 28-01-2019 04:00:00 3.2 C 91 % 1.88 C
50 28-01-2019 04:05:00 3.2 C 91 % 1.88 C
Sensor: Nr:Datum:Temp:Feuchte:Taupunkt:
Aussen-T/F 51 28-01-2019 04:10:00 3.2 C 91 % 1.88 C
52 28-01-2019 04:15:00 3.1 C 91 % 1.78 C
53 28-01-2019 04:20:00 3.2 C 91 % 1.88 C
54 28-01-2019 04:25:00 3.2 C 91 % 1.88 C
55 28-01-2019 04:30:00 3.2 C 90 % 1.72 C
56 28-01-2019 04:35:00 3.3 C 90 % 1.82 C
57 28-01-2019 04:40:00 3.3 C 90 % 1.82 C
58 28-01-2019 04:45:00 3.3 C 90 % 1.82 C
59 28-01-2019 04:50:00 3.3 C 90 % 1.82 C
60 28-01-2019 04:55:00 3.3 C 90 % 1.82 C
61 28-01-2019 05:00:00 3.2 C 90 % 1.72 C
62 28-01-2019 05:05:00 3.2 C 90 % 1.72 C
63 28-01-2019 05:10:00 3.2 C 90 % 1.72 C
64 28-01-2019 05:15:00 3.3 C 90 % 1.82 C
65 28-01-2019 05:20:00 3.3 C 90 % 1.82 C
66 28-01-2019 05:25:00 3.3 C 90 % 1.82 C
67 28-01-2019 05:30:00 3.3 C 90 % 1.82 C
68 28-01-2019 05:35:00 3.2 C 89 % 1.57 C
69 28-01-2019 05:40:00 3.3 C 89 % 1.67 C
70 28-01-2019 05:45:00 3.3 C 89 % 1.67 C
71 28-01-2019 05:50:00 3.3 C 89 % 1.67 C
72 28-01-2019 05:55:00 3.3 C 89 % 1.67 C
73 28-01-2019 06:00:00 3.3 C 89 % 1.67 C
74 28-01-2019 06:05:00 3.3 C 89 % 1.67 C
75 28-01-2019 06:10:00 3.3 C 89 % 1.67 C
Sensor: Nr:Datum:Temp:Feuchte:Taupunkt:
Aussen-T/F 76 28-01-2019 06:15:00 3.3 C 89 % 1.67 C
77 28-01-2019 06:20:00 3.3 C 89 % 1.67 C
78 28-01-2019 06:25:00 3.3 C 89 % 1.67 C
79 28-01-2019 06:30:00 3.2 C 90 % 1.72 C
80 28-01-2019 06:35:00 3.1 C 90 % 1.62 C
81 28-01-2019 06:40:00 3.1 C 91 % 1.78 C
82 28-01-2019 06:45:00 3 C 91 % 1.68 C
83 28-01-2019 06:50:00 2.9 C 91 % 1.58 C
84 28-01-2019 06:55:00 2.9 C 91 % 1.58 C
85 28-01-2019 07:00:00 2.9 C 92 % 1.73 C
86 28-01-2019 07:05:00 2.9 C 92 % 1.73 C
87 28-01-2019 07:10:00 2.8 C 92 % 1.63 C
88 28-01-2019 07:15:00 2.8 C 92 % 1.63 C
89 28-01-2019 07:20:00 2.7 C 92 % 1.53 C
90 28-01-2019 07:25:00 2.7 C 93 % 1.68 C
91 28-01-2019 07:30:00 2.7 C 93 % 1.68 C
92 28-01-2019 07:35:00 2.7 C 93 % 1.68 C
93 28-01-2019 07:40:00 2.6 C 93 % 1.59 C
94 28-01-2019 07:45:00 2.6 C 93 % 1.59 C
95 28-01-2019 07:50:00 2.6 C 94 % 1.73 C
96 28-01-2019 07:55:00 2.6 C 94 % 1.73 C
97 28-01-2019 08:00:00 2.6 C 93 % 1.59 C
98 28-01-2019 08:05:00 2.5 C 93 % 1.49 C
99 28-01-2019 08:10:00 2.5 C 94 % 1.63 C
100 28-01-2019 08:15:00 2.4 C 94 % 1.54 C
Sensor: Nr:Datum:Temp:Feuchte:Taupunkt:
Aussen-T/F 101 28-01-2019 08:20:00 2.5 C 94 % 1.63 C
102 28-01-2019 08:25:00 2.5 C 94 % 1.63 C
103 28-01-2019 08:30:00 2.5 C 94 % 1.63 C
104 28-01-2019 08:35:00 2.5 C 93 % 1.49 C
105 28-01-2019 08:40:00 2.5 C 93 % 1.49 C
106 28-01-2019 08:45:00 2.5 C 93 % 1.49 C
107 28-01-2019 08:50:00 2.5 C 94 % 1.63 C
108 28-01-2019 08:55:00 2.5 C 94 % 1.63 C
109 28-01-2019 09:00:00 2.4 C 94 % 1.54 C
110 28-01-2019 09:05:00 2.4 C 94 % 1.54 C
111 28-01-2019 09:10:00 2.4 C 94 % 1.54 C
112 28-01-2019 09:15:00 2.3 C 94 % 1.44 C
113 28-01-2019 09:20:00 2.3 C 94 % 1.44 C
114 28-01-2019 09:25:00 2.2 C 94 % 1.34 C
115 28-01-2019 09:30:00 2.1 C 94 % 1.24 C
116 28-01-2019 09:35:00 2.1 C 94 % 1.24 C
117 28-01-2019 09:40:00 2.1 C 95 % 1.38 C
118 28-01-2019 09:45:00 2.2 C 95 % 1.48 C
119 28-01-2019 09:50:00 2.2 C 95 % 1.48 C
120 28-01-2019 09:55:00 2.2 C 95 % 1.48 C
121 28-01-2019 10:00:00 2.2 C 95 % 1.48 C
122 28-01-2019 10:05:00 2.3 C 95 % 1.58 C
123 28-01-2019 10:10:00 2.3 C 95 % 1.58 C
124 28-01-2019 10:15:00 2.3 C 95 % 1.58 C
125 28-01-2019 10:20:00 2.3 C 95 % 1.58 C
Sensor: Nr:Datum:Temp:Feuchte:Taupunkt:
Aussen-T/F 126 28-01-2019 10:25:00 2.3 C 95 % 1.58 C
127 28-01-2019 10:30:00 2.4 C 95 % 1.68 C
128 28-01-2019 10:35:00 2.4 C 95 % 1.68 C
129 28-01-2019 10:40:00 2.5 C 95 % 1.78 C
130 28-01-2019 10:45:00 2.6 C 95 % 1.88 C
131 28-01-2019 10:50:00 2.6 C 95 % 1.88 C
132 28-01-2019 10:55:00 2.7 C 95 % 1.98 C
133 28-01-2019 11:00:00 2.7 C 95 % 1.98 C
134 28-01-2019 11:05:00 2.8 C 95 % 2.08 C
135 28-01-2019 11:10:00 2.8 C 95 % 2.08 C
136 28-01-2019 11:15:00 2.9 C 95 % 2.18 C
137 28-01-2019 11:20:00 2.9 C 95 % 2.18 C
138 28-01-2019 11:25:00 2.9 C 95 % 2.18 C
139 28-01-2019 11:30:00 2.9 C 95 % 2.18 C
140 28-01-2019 11:35:00 2.9 C 95 % 2.18 C
141 28-01-2019 11:40:00 3 C 95 % 2.28 C
142 28-01-2019 11:45:00 3.1 C 95 % 2.38 C
143 28-01-2019 11:50:00 3.1 C 95 % 2.38 C
144 28-01-2019 11:55:00 3.1 C 95 % 2.38 C
145 28-01-2019 12:00:00 3.1 C 95 % 2.38 C
146 28-01-2019 12:05:00 3.2 C 95 % 2.48 C
147 28-01-2019 12:10:00 3.2 C 95 % 2.48 C
148 28-01-2019 12:15:00 3.2 C 95 % 2.48 C
149 28-01-2019 12:20:00 3.3 C 95 % 2.58 C
150 28-01-2019 12:25:00 3.3 C 95 % 2.58 C
Sensor: Nr:Datum:Temp:Feuchte:Taupunkt:
Aussen-T/F 151 28-01-2019 12:30:00 3.3 C 95 % 2.58 C
152 28-01-2019 12:35:00 3.4 C 95 % 2.68 C
153 28-01-2019 12:40:00 3.4 C 94 % 2.53 C
154 28-01-2019 12:45:00 3.4 C 94 % 2.53 C
155 28-01-2019 12:50:00 3.4 C 94 % 2.53 C
156 28-01-2019 12:55:00 3.4 C 94 % 2.53 C
157 28-01-2019 13:00:00 3.3 C 94 % 2.43 C
158 28-01-2019 13:05:00 3.3 C 94 % 2.43 C
159 28-01-2019 13:10:00 3.3 C 95 % 2.58 C
160 28-01-2019 13:15:00 3.4 C 95 % 2.68 C
161 28-01-2019 13:20:00 3.4 C 95 % 2.68 C
162 28-01-2019 13:25:00 3.5 C 95 % 2.78 C
163 28-01-2019 13:30:00 3.6 C 95 % 2.88 C
164 28-01-2019 13:35:00 3.6 C 94 % 2.73 C
165 28-01-2019 13:40:00 3.7 C 94 % 2.83 C
166 28-01-2019 13:45:00 3.8 C 94 % 2.93 C
167 28-01-2019 13:50:00 3.8 C 94 % 2.93 C
168 28-01-2019 13:55:00 3.9 C 93 % 2.87 C
169 28-01-2019 14:00:00 3.9 C 93 % 2.87 C
170 28-01-2019 14:05:00 4 C 92 % 2.82 C
171 28-01-2019 14:10:00 4.1 C 92 % 2.92 C
172 28-01-2019 14:15:00 4.1 C 92 % 2.92 C
173 28-01-2019 14:20:00 4.1 C 92 % 2.92 C
174 28-01-2019 14:25:00 4.1 C 92 % 2.92 C
175 28-01-2019 14:30:00 4.1 C 92 % 2.92 C
Sensor: Nr:Datum:Temp:Feuchte:Taupunkt:
Aussen-T/F 176 28-01-2019 14:35:00 4 C 92 % 2.82 C
177 28-01-2019 14:40:00 4 C 92 % 2.82 C
178 28-01-2019 14:45:00 4 C 92 % 2.82 C
179 28-01-2019 14:50:00 4 C 92 % 2.82 C
180 28-01-2019 14:55:00 4 C 92 % 2.82 C
181 28-01-2019 15:00:00 4 C 91 % 2.67 C
182 28-01-2019 15:05:00 4.1 C 91 % 2.77 C
183 28-01-2019 15:10:00 4.1 C 91 % 2.77 C
184 28-01-2019 15:15:00 4.1 C 90 % 2.61 C
185 28-01-2019 15:20:00 4.1 C 90 % 2.61 C
186 28-01-2019 15:25:00 4.1 C 91 % 2.77 C
187 28-01-2019 15:30:00 4.1 C 91 % 2.77 C
188 28-01-2019 15:35:00 4 C 90 % 2.51 C
189 28-01-2019 15:40:00 3.9 C 91 % 2.57 C
190 28-01-2019 15:45:00 3.9 C 91 % 2.57 C
191 28-01-2019 15:50:00 3.9 C 91 % 2.57 C
192 28-01-2019 15:55:00 3.9 C 90 % 2.41 C
193 28-01-2019 16:00:00 3.9 C 90 % 2.41 C
194 28-01-2019 16:05:00 3.8 C 91 % 2.47 C
195 28-01-2019 16:10:00 3.6 C 91 % 2.27 C
196 28-01-2019 16:15:00 3.5 C 91 % 2.17 C
197 28-01-2019 16:20:00 3.4 C 92 % 2.23 C
198 28-01-2019 16:25:00 3.3 C 92 % 2.13 C
199 28-01-2019 16:30:00 3.3 C 92 % 2.13 C
200 28-01-2019 16:35:00 3.3 C 92 % 2.13 C
Sensor: Nr:Datum:Temp:Feuchte:Taupunkt:
Aussen-T/F 201 28-01-2019 16:40:00 3.3 C 92 % 2.13 C
202 28-01-2019 16:45:00 3.3 C 92 % 2.13 C
203 28-01-2019 16:50:00 3.3 C 92 % 2.13 C
204 28-01-2019 16:55:00 3.3 C 92 % 2.13 C
205 28-01-2019 17:00:00 3.2 C 92 % 2.03 C
206 28-01-2019 17:05:00 3.2 C 92 % 2.03 C
207 28-01-2019 17:10:00 3.1 C 92 % 1.93 C
208 28-01-2019 17:15:00 3.1 C 93 % 2.08 C
209 28-01-2019 17:20:00 3 C 93 % 1.98 C
210 28-01-2019 17:25:00 2.9 C 93 % 1.88 C
211 28-01-2019 17:30:00 2.9 C 93 % 1.88 C
212 28-01-2019 17:35:00 2.9 C 93 % 1.88 C
213 28-01-2019 17:40:00 2.8 C 93 % 1.78 C
214 28-01-2019 17:45:00 2.8 C 93 % 1.78 C
215 28-01-2019 17:50:00 2.9 C 93 % 1.88 C
216 28-01-2019 17:55:00 2.9 C 92 % 1.73 C
217 28-01-2019 18:00:00 2.9 C 92 % 1.73 C
218 28-01-2019 18:05:00 2.8 C 93 % 1.78 C
219 28-01-2019 18:10:00 2.9 C 93 % 1.88 C
220 28-01-2019 18:15:00 2.9 C 93 % 1.88 C
221 28-01-2019 18:20:00 2.9 C 93 % 1.88 C
222 28-01-2019 18:25:00 2.9 C 93 % 1.88 C
223 28-01-2019 18:30:00 2.9 C 93 % 1.88 C
224 28-01-2019 18:35:00 2.8 C 93 % 1.78 C
225 28-01-2019 18:40:00 2.8 C 93 % 1.78 C
Sensor: Nr:Datum:Temp:Feuchte:Taupunkt:
Aussen-T/F 226 28-01-2019 18:45:00 2.7 C 92 % 1.53 C
227 28-01-2019 18:50:00 2.6 C 92 % 1.43 C
228 28-01-2019 18:55:00 2.6 C 92 % 1.43 C
229 28-01-2019 19:00:00 2.6 C 92 % 1.43 C
230 28-01-2019 19:05:00 2.6 C 92 % 1.43 C
231 28-01-2019 19:10:00 2.7 C 91 % 1.38 C
232 28-01-2019 19:15:00 2.8 C 90 % 1.33 C
233 28-01-2019 19:20:00 2.9 C 89 % 1.27 C
234 28-01-2019 19:25:00 3 C 88 % 1.21 C
235 28-01-2019 19:30:00 3.1 C 88 % 1.31 C
236 28-01-2019 19:35:00 3.2 C 87 % 1.25 C
237 28-01-2019 19:40:00 3.2 C 86 % 1.09 C
238 28-01-2019 19:45:00 3.3 C 86 % 1.19 C
239 28-01-2019 19:50:00 3.3 C 88 % 1.51 C
240 28-01-2019 19:55:00 3.3 C 88 % 1.51 C
241 28-01-2019 20:00:00 3.2 C 87 % 1.25 C
242 28-01-2019 20:05:00 3.3 C 86 % 1.19 C
243 28-01-2019 20:10:00 3.5 C 86 % 1.38 C
244 28-01-2019 20:15:00 3.6 C 86 % 1.48 C
245 28-01-2019 20:20:00 3.7 C 85 % 1.42 C
246 28-01-2019 20:25:00 3.7 C 85 % 1.42 C
247 28-01-2019 20:30:00 3.6 C 85 % 1.32 C
248 28-01-2019 20:35:00 3.5 C 86 % 1.38 C
249 28-01-2019 20:40:00 3.4 C 86 % 1.29 C
250 28-01-2019 20:45:00 3.4 C 86 % 1.29 C
Sensor: Nr:Datum:Temp:Feuchte:Taupunkt:
Aussen-T/F 251 28-01-2019 20:50:00 3.4 C 86 % 1.29 C
252 28-01-2019 20:55:00 3.3 C 86 % 1.19 C
253 28-01-2019 21:00:00 3.3 C 87 % 1.35 C
254 28-01-2019 21:05:00 3.3 C 87 % 1.35 C
255 28-01-2019 21:10:00 3.3 C 87 % 1.35 C
256 28-01-2019 21:15:00 3.4 C 86 % 1.29 C
257 28-01-2019 21:20:00 3.4 C 86 % 1.29 C
258 28-01-2019 21:25:00 3.4 C 87 % 1.45 C
259 28-01-2019 21:30:00 3.3 C 87 % 1.35 C
260 28-01-2019 21:35:00 3.3 C 87 % 1.35 C
261 28-01-2019 21:40:00 3.3 C 87 % 1.35 C
262 28-01-2019 21:45:00 3.4 C 87 % 1.45 C
263 28-01-2019 21:50:00 3.4 C 87 % 1.45 C
264 28-01-2019 21:55:00 3.5 C 86 % 1.38 C
265 28-01-2019 22:00:00 3.6 C 86 % 1.48 C
266 28-01-2019 22:05:00 3.6 C 86 % 1.48 C
267 28-01-2019 22:10:00 3.6 C 86 % 1.48 C
268 28-01-2019 22:15:00 3.6 C 86 % 1.48 C
269 28-01-2019 22:20:00 3.5 C 86 % 1.38 C
270 28-01-2019 22:25:00 3.5 C 87 % 1.55 C
271 28-01-2019 22:30:00 3.4 C 87 % 1.45 C
272 28-01-2019 22:35:00 3.4 C 86 % 1.29 C
273 28-01-2019 22:40:00 3.4 C 86 % 1.29 C
274 28-01-2019 22:45:00 3.4 C 86 % 1.29 C
275 28-01-2019 22:50:00 3.4 C 86 % 1.29 C
Sensor: Nr:Datum:Temp:Feuchte:Taupunkt:
Aussen-T/F 276 28-01-2019 22:55:00 3.4 C 86 % 1.29 C
277 28-01-2019 23:00:00 3.5 C 86 % 1.38 C
278 28-01-2019 23:05:00 3.5 C 86 % 1.38 C
279 28-01-2019 23:10:00 3.5 C 86 % 1.38 C
280 28-01-2019 23:15:00 3.4 C 86 % 1.29 C
281 28-01-2019 23:20:00 3.4 C 87 % 1.45 C
282 28-01-2019 23:25:00 3.4 C 87 % 1.45 C
283 28-01-2019 23:30:00 3.3 C 88 % 1.51 C
284 28-01-2019 23:35:00 3.2 C 88 % 1.41 C
285 28-01-2019 23:40:00 3.2 C 88 % 1.41 C
286 28-01-2019 23:45:00 3.1 C 88 % 1.31 C
287 28-01-2019 23:50:00 3 C 88 % 1.21 C
288 28-01-2019 23:55:00 2.9 C 88 % 1.11 C

Legende:
   Min
   Max


Maximal/Minimal-Werte vom 28.01.2019 - 28.01.2019

Sensor Min Max Avg
Temp
(Aussen-T/F)
2.1 °C
28-01-2019  09:30:00
4.1 °C
28-01-2019  14:10:00
3.17 °C
Feuchte
(Aussen-T/F)
85 %
28-01-2019  20:20:00
95 %
28-01-2019  09:40:00
90.89 %
Taupunkt
(Aussen-T/F)
1.09 C
28-01-2019  19:40:00
2.93 C
28-01-2019  13:45:00
1.82 C

Die Daten stammen von einer Davis Vantage Pro 2 Wetter-Station und werden unter Linux mit der Software wview2wettercgi und aufbereitet. Alle Angaben erfolgen ohne Gewähr für ihre Vollständigkeit oder Richtigkeit.
Kontakt: Rainer Krienke krienke@uni-koblenz.de . Meine Webseiten an der Uni Koblenz oder privat.
Version: $Revision: 0.78 $